TimeCDT,TemperatureF,Dew PointF,Humidity,Sea Level PressureIn,VisibilityMPH,Wind Direction,Wind SpeedMPH,Gust SpeedMPH,PrecipitationIn,Events,Conditions,WindDirDegrees,DateUTC
12:12 AM,66.2,55.4,68,29.93,10.0,SSW,6.9,-,N/A,,Clear,210,2013-08-19 05:12:00
12:33 AM,66.2,55.4,68,29.93,10.0,SSW,8.1,-,N/A,,Clear,210,2013-08-19 05:33:00
12:53 AM,66.2,55.4,68,29.92,10.0,SSW,5.8,-,N/A,,Clear,210,2013-08-19 05:53:00
1:12 AM,66.2,55.4,68,29.92,10.0,SSW,5.8,-,N/A,,Scattered Clouds,210,2013-08-19 06:12:00
1:33 AM,66.2,55.4,68,29.92,10.0,SSW,6.9,-,N/A,,Scattered Clouds,210,2013-08-19 06:33:00
1:53 AM,66.2,55.4,68,29.92,10.0,SW,4.6,-,N/A,,Mostly Cloudy,220,2013-08-19 06:53:00
2:12 AM,66.2,55.4,68,29.92,10.0,SW,6.9,-,N/A,,Mostly Cloudy,220,2013-08-19 07:12:00
2:33 AM,66.2,55.4,68,29.91,10.0,SSW,6.9,-,N/A,,Mostly Cloudy,210,2013-08-19 07:33:00
2:53 AM,66.2,55.4,68,29.90,10.0,SSW,6.9,-,N/A,,Mostly Cloudy,210,2013-08-19 07:53:00
3:12 AM,66.2,55.4,68,29.90,10.0,SSW,8.1,-,N/A,,Scattered Clouds,210,2013-08-19 08:12:00
3:33 AM,66.2,55.4,68,29.90,10.0,SSW,8.1,-,N/A,,Clear,210,2013-08-19 08:33:00
3:53 AM,66.2,57.2,73,29.91,10.0,SW,3.5,-,N/A,,Clear,230,2013-08-19 08:53:00
4:13 AM,64.4,57.2,77,29.91,10.0,SSW,4.6,-,N/A,,Clear,210,2013-08-19 09:13:00
4:32 AM,66.2,57.2,73,29.90,10.0,SSW,4.6,-,N/A,Thunderstorm,Mostly Cloudy,210,2013-08-19 09:32:00
4:53 AM,62.6,59.0,88,29.90,3.0,South,8.1,-,0.38,Rain-Thunderstorm,Heavy Thunderstorms and Rain,170,2013-08-19 09:53:00
5:13 AM,62.6,60.8,94,29.90,10.0,SSW,3.5,-,N/A,Thunderstorm,Thunderstorm,210,2013-08-19 10:13:00
5:32 AM,62.6,60.8,94,29.90,10.0,South,4.6,-,N/A,Rain,Light Rain,170,2013-08-19 10:32:00
5:53 AM,62.6,60.8,94,29.90,10.0,South,3.5,-,0.01,,Mostly Cloudy,180,2013-08-19 10:53:00
6:13 AM,62.6,60.8,94,29.91,10.0,South,6.9,-,N/A,,Mostly Cloudy,180,2013-08-19 11:13:00
6:32 AM,62.6,60.8,94,29.91,10.0,South,6.9,-,N/A,,Mostly Cloudy,190,2013-08-19 11:32:00
6:53 AM,62.6,60.8,94,29.89,10.0,SSW,6.9,-,N/A,,Scattered Clouds,200,2013-08-19 11:53:00
7:13 AM,62.6,60.8,94,29.90,10.0,SE,4.6,-,N/A,,Scattered Clouds,130,2013-08-19 12:13:00
7:32 AM,62.6,60.8,94,29.90,10.0,Calm,Calm,-,N/A,,Clear,0,2013-08-19 12:32:00
7:53 AM,62.6,60.8,94,29.91,10.0,Calm,Calm,-,N/A,,Mostly Cloudy,0,2013-08-19 12:53:00
8:13 AM,64.4,60.8,88,29.91,10.0,South,3.5,-,N/A,,Overcast,190,2013-08-19 13:13:00
8:32 AM,64.4,62.6,94,29.91,10.0,SSE,4.6,-,N/A,,Overcast,160,2013-08-19 13:32:00
8:53 AM,66.2,62.6,88,29.91,10.0,Calm,Calm,-,N/A,,Mostly Cloudy,0,2013-08-19 13:53:00
9:13 AM,69.8,64.4,83,29.91,10.0,SW,4.6,-,N/A,,Clear,230,2013-08-19 14:13:00
9:32 AM,69.8,64.4,83,29.91,10.0,SW,5.8,-,N/A,,Scattered Clouds,230,2013-08-19 14:32:00
9:53 AM,71.6,64.4,78,29.90,10.0,SW,4.6,-,N/A,,Scattered Clouds,230,2013-08-19 14:53:00
10:13 AM,71.6,64.4,78,29.90,10.0,SW,5.8,-,N/A,,Clear,230,2013-08-19 15:13:00
10:32 AM,73.4,64.4,73,29.90,10.0,SW,5.8,-,N/A,,Clear,230,2013-08-19 15:32:00
10:53 AM,75.2,66.2,73,29.90,10.0,WSW,5.8,-,N/A,,Scattered Clouds,250,2013-08-19 15:53:00
11:13 AM,75.2,64.4,69,29.90,10.0,West,5.8,-,N/A,,Mostly Cloudy,260,2013-08-19 16:13:00
11:32 AM,75.2,66.2,73,29.90,10.0,SW,6.9,-,N/A,,Mostly Cloudy,230,2013-08-19 16:32:00
11:53 AM,77.0,66.2,69,29.89,10.0,SW,5.8,-,N/A,,Scattered Clouds,230,2013-08-19 16:53:00
12:13 PM,78.8,66.2,65,29.89,10.0,SW,8.1,-,N/A,,Mostly Cloudy,230,2013-08-19 17:13:00
12:33 PM,78.8,66.2,65,29.89,10.0,SW,8.1,-,N/A,,Scattered Clouds,220,2013-08-19 17:33:00
12:53 PM,78.8,64.4,61,29.89,10.0,SW,6.9,-,N/A,,Scattered Clouds,230,2013-08-19 17:53:00
1:13 PM,80.6,64.4,58,29.89,10.0,WSW,5.8,-,N/A,,Clear,240,2013-08-19 18:13:00
1:32 PM,80.6,66.2,61,29.89,10.0,SW,4.6,-,N/A,,Clear,230,2013-08-19 18:32:00
1:53 PM,80.6,64.4,58,29.89,10.0,SW,8.1,-,N/A,,Clear,230,2013-08-19 18:53:00
2:13 PM,82.4,62.6,51,29.88,10.0,West,6.9,-,N/A,,Clear,260,2013-08-19 19:13:00
2:32 PM,82.4,62.6,51,29.88,10.0,West,10.4,-,N/A,,Clear,260,2013-08-19 19:32:00
2:53 PM,82.4,62.6,51,29.88,10.0,West,8.1,-,N/A,,Clear,260,2013-08-19 19:53:00
3:13 PM,82.4,62.6,51,29.88,10.0,SW,4.6,-,N/A,,Clear,230,2013-08-19 20:13:00
3:32 PM,84.2,62.6,48,29.87,10.0,SSW,10.4,-,N/A,,Clear,210,2013-08-19 20:32:00
3:53 PM,84.2,62.6,48,29.87,10.0,South,8.1,-,N/A,,Scattered Clouds,190,2013-08-19 20:53:00
4:12 PM,84.2,60.8,45,29.86,10.0,SSW,5.8,-,N/A,,Clear,200,2013-08-19 21:12:00
4:33 PM,84.2,60.8,45,29.87,10.0,SW,5.8,-,N/A,,Clear,220,2013-08-19 21:33:00
4:53 PM,84.2,60.8,45,29.86,10.0,SW,5.8,-,N/A,,Clear,220,2013-08-19 21:53:00
5:12 PM,84.2,60.8,45,29.86,10.0,WSW,5.8,-,N/A,,Clear,240,2013-08-19 22:12:00
5:33 PM,84.2,62.6,48,29.85,10.0,WSW,6.9,-,N/A,,Clear,240,2013-08-19 22:33:00
5:53 PM,84.2,62.6,48,29.85,10.0,WSW,4.6,-,N/A,,Clear,240,2013-08-19 22:53:00
6:12 PM,82.4,64.4,54,29.85,10.0,WSW,6.9,-,N/A,,Clear,240,2013-08-19 23:12:00
6:33 PM,82.4,64.4,54,29.85,10.0,SW,5.8,-,N/A,,Scattered Clouds,220,2013-08-19 23:33:00
6:53 PM,82.4,64.4,54,29.85,10.0,SW,5.8,-,N/A,,Scattered Clouds,220,2013-08-19 23:53:00
7:12 PM,80.6,64.4,58,29.85,10.0,SW,4.6,-,N/A,,Clear,230,2013-08-20 00:12:00
7:33 PM,80.6,66.2,61,29.85,10.0,Calm,Calm,-,N/A,,Clear,0,2013-08-20 00:33:00
7:53 PM,78.8,66.2,65,29.86,10.0,SSW,3.5,-,N/A,,Scattered Clouds,210,2013-08-20 00:53:00
8:12 PM,77.0,66.2,69,29.86,10.0,South,3.5,-,N/A,,Scattered Clouds,180,2013-08-20 01:12:00
8:33 PM,75.2,66.2,73,29.87,10.0,SSW,5.8,-,N/A,,Mostly Cloudy,210,2013-08-20 01:33:00
8:53 PM,75.2,66.2,73,29.87,10.0,SSW,4.6,-,N/A,,Scattered Clouds,210,2013-08-20 01:53:00
9:12 PM,73.4,66.2,78,29.87,10.0,SSW,5.8,-,N/A,,Clear,210,2013-08-20 02:12:00
9:33 PM,73.4,66.2,78,29.88,10.0,SW,4.6,-,N/A,,Clear,220,2013-08-20 02:33:00
9:53 PM,73.4,66.2,78,29.88,10.0,SW,4.6,-,N/A,,Clear,220,2013-08-20 02:53:00
10:12 PM,73.4,66.2,78,29.88,10.0,SSW,4.6,-,N/A,,Clear,210,2013-08-20 03:12:00
10:33 PM,71.6,66.2,83,29.88,10.0,SSW,5.8,-,N/A,,Clear,210,2013-08-20 03:33:00
10:53 PM,71.6,66.2,83,29.88,10.0,SSW,3.5,-,N/A,,Clear,210,2013-08-20 03:53:00
11:12 PM,71.6,66.2,83,29.88,10.0,Calm,Calm,-,N/A,,Clear,0,2013-08-20 04:12:00
11:33 PM,71.6,66.2,83,29.88,10.0,SW,3.5,-,N/A,,Clear,220,2013-08-20 04:33:00
11:53 PM,71.6,66.2,83,29.88,10.0,SW,4.6,-,N/A,,Clear,220,2013-08-20 04:53:00